This is the latest recevied weather packets stored in our database for station/object PACCTY-2. If no packets are shown the sender has not sent any weather packets the latest 10 day(s).
| Time | Temp. | Humidity | Pressure | Rain* | Wind** | Luminosity | Snow |
|---|---|---|---|---|---|---|---|
| 1788408986 | 15° C | 92% | 1007.8 hPa | 0 mm | - | - | - |
| 1788408384 | 15° C | 91% | 1007.7 hPa | 0 mm | - | - | - |
| 1788408083 | 15° C | 91% | 1007.7 hPa | 0 mm | - | - | - |
| 1788407481 | 15.56° C | 91% | 1007.5 hPa | 0 mm | - | - | - |
| 1788406578 | 15.56° C | 91% | 1007.5 hPa | 0 mm | - | - | - |
| 1788405976 | 15.56° C | 91% | 1007.3 hPa | 0 mm | - | - | - |
| 1788405675 | 15.56° C | 91% | 1007.3 hPa | 0 mm | - | - | - |
| 1788405375 | 16.11° C | 91% | 1007.3 hPa | 0 mm | - | - | - |
| 1788405073 | 15.56° C | 90% | 1007.3 hPa | 0 mm | - | - | - |
| 1788404471 | 16.11° C | 90% | 1007.3 hPa | 0 mm | - | - | - |
| 1788404170 | 16.11° C | 90% | 1007.4 hPa | 0 mm | - | - | - |
| 1788403869 | 16.11° C | 90% | 1007.4 hPa | 0 mm | - | - | - |
| 1788403569 | 16.11° C | 90% | 1007.2 hPa | 0 mm | - | - | - |
| 1788403268 | 16.11° C | 90% | 1007.2 hPa | 0 mm | - | - | - |
| 1788402967 | 16.11° C | 89% | 1007.2 hPa | 0 mm | - | - | - |
| 1788402667 | 16.11° C | 89% | 1007.2 hPa | 0 mm | - | - | - |
| 1788402364 | 16.11° C | 89% | 1007.3 hPa | 0 mm | - | - | - |
| 1788402063 | 16.11° C | 89% | 1007.3 hPa | 0 mm | - | - | - |
| 1788401762 | 16.11° C | 89% | 1007.2 hPa | 0 mm | - | - | - |
| 1788401461 | 16.11° C | 88% | 1007.1 hPa | 0 mm | - | - | - |
| 1788401160 | 16.67° C | 88% | 1007.1 hPa | 0 mm | - | - | - |
| 1788400859 | 16.67° C | 88% | 1007.1 hPa | 0 mm | - | - | - |
| 1788400558 | 16.67° C | 88% | 1007 hPa | 0 mm | - | - | - |
| 1788399956 | 16.67° C | 88% | 1007 hPa | 0 mm | - | - | - |
| 1788399053 | 17.22° C | 88% | 1007 hPa | 0 mm | - | - | - |
* Rain latest hour (hover to see other rain measurements)
** Current wind speed in m/s (hover to see current wind gust speed)